This is the latest recevied weather packets stored in our database for station/object YB3RDW-13. If no packets are shown the sender has not sent any weather packets the latest 1 day(s).
| Time | Temp. | Humidity | Pressure | Rain* | Wind** | Luminosity | Snow |
|---|---|---|---|---|---|---|---|
| 1778048218 | 33.33° C | 60% | 1010 hPa | 0 mm | - | 545 W/m² | - |
| 1778047918 | 33.33° C | 57% | 1010 hPa | 0 mm | - | 542 W/m² | - |
| 1778047019 | 33.33° C | 56% | 1010 hPa | 0 mm | - | 590 W/m² | - |
| 1778046717 | 33.33° C | 57% | 1010 hPa | 0 mm | - | 598 W/m² | - |
| 1778046117 | 33.89° C | 56% | 1010 hPa | 0 mm | - | 616 W/m² | - |
| 1778045818 | 33.33° C | 58% | 1010 hPa | 0 mm | - | 623 W/m² | - |
| 1778045218 | 33.33° C | 57% | 1010 hPa | 0 mm | - | 628 W/m² | - |
| 1778044918 | 33.33° C | 57% | 1010 hPa | 0 mm | - | 640 W/m² | - |
| 1778044318 | 32.78° C | 59% | 1011 hPa | 0 mm | - | 650 W/m² | - |
| 1778044019 | 32.78° C | 58% | 1011 hPa | 0 mm | - | 664 W/m² | - |
| 1778043418 | 32.78° C | 58% | 1011 hPa | 0 mm | - | 690 W/m² | - |
| 1778043117 | 32.78° C | 61% | 1011 hPa | 0 mm | - | 690 W/m² | - |
| 1778042819 | 32.78° C | 62% | 1011 hPa | 0 mm | - | 700 W/m² | - |
| 1778042518 | 32.78° C | 63% | 1011 hPa | 0 mm | - | 368 W/m² | - |
| 1778041917 | 33.33° C | 60% | 1011 hPa | 0 mm | - | 700 W/m² | - |
| 1778041617 | 32.78° C | 62% | 1011 hPa | 0 mm | - | 722 W/m² | - |
| 1778041317 | 32.78° C | 62% | 1011 hPa | 0 mm | - | 690 W/m² | - |
| 1778041018 | 32.78° C | 61% | 1011 hPa | 0 mm | - | 699 W/m² | - |
| 1778040718 | 32.78° C | 61% | 1012 hPa | 0 mm | - | 698 W/m² | - |
| 1778040417 | 32.78° C | 60% | 1012 hPa | 0 mm | - | 710 W/m² | - |
| 1778040118 | 32.78° C | 59% | 1012 hPa | 0 mm | - | 715 W/m² | - |
| 1778039517 | 32.22° C | 61% | 1012 hPa | 0 mm | - | 617 W/m² | - |
| 1778039217 | 32.22° C | 61% | 1012 hPa | 0 mm | - | 597 W/m² | - |
| 1778038918 | 32.22° C | 61% | 1012 hPa | 0 mm | - | 530 W/m² | - |
| 1778038617 | 32.22° C | 64% | 1012 hPa | 0 mm | - | 534 W/m² | - |
* Rain latest hour (hover to see other rain measurements)
** Current wind speed in m/s (hover to see current wind gust speed)